Weather History for KPDK - September, 2013

Change the Weather History Date:

Tuesday, September 17, 2013

  Actual Average Record
Temperature  
Mean Temperature 72 °F 73 °F  
Max Temperature 78 °F 83 °F 93 °F (2010)
Min Temperature 65 °F 63 °F 51 °F (2001)
Degree Days  
Heating Degree Days 0 0  
Month to date heating degree days 0 0  
Since 1 July heating degree days 1 0  
Cooling Degree Days 7 8  
Month to date cooling degree days 193 171  
Year to date cooling degree days 1462 1628  
Growing Degree Days 22 (Base 50)    
Moisture  
Dew Point 60 °F    
Average Humidity 68    
Maximum Humidity 81    
Minimum Humidity 54    
Precipitation  
Precipitation 0.00 in 0.16 in 0.41 in (2012)
Month to date precipitation 0.70 2.41  
Year to date precipitation 37.16 38.99  
Sea Level Pressure  
Sea Level Pressure 30.16 in    
Wind  
Wind Speed 7 mph (East)    
Max Wind Speed 15 mph    
Max Gust Speed 0 mph    
Visibility 10 miles    
Events      
T = Trace of Precipitation, MM = Missing Value Source: NWS Daily Summary

Daily Weather History Graph

Daily Weather History Graph

Search for Another Location

Airport or City:

Trip Planner

Search our weather history database for the weather conditions in past years. The results will help you decide how hot, cold, wet, or windy it might be!

Date:

Astronomy

Sep. 17, 2013 Rise Set
Actual Time 7:22 AM EDT 7:40 PM EDT
Civil Twilight 6:57 AM EDT 8:05 PM EDT
Nautical Twilight 6:27 AM EDT 8:34 PM EDT
Astronomical Twilight 5:58 AM EDT 9:04 PM EDT
Moon 6:24 PM EDT (9/17) 5:19 AM EDT (9/17)
Length of Visible Light 13h 08m
Length of Day
12h 18m
Waxing Gibbous, 96% of the Moon is Illuminated
Sep 17
Waxing Gibbous
Sep 19
Full
Sep 26
Last Quarter
Oct 4
New
Oct 11
First Quarter

Hourly Weather History & Observations

Time (EDT) Temp. Dew Point Humidity Pressure Visibility Wind Dir Wind Speed Gust Speed Precip Events Conditions
12:53 AM 66.0 °F 61.0 °F 84% 30.09 in 10.0 mi Calm Calm - N/A   Clear
1:53 AM 68.0 °F 60.1 °F 76% 30.09 in 10.0 mi Calm Calm - N/A   Clear
2:53 AM 69.1 °F 61.0 °F 75% 30.08 in 10.0 mi Calm Calm - N/A   Clear
3:53 AM 70.0 °F 62.1 °F 76% 30.08 in 10.0 mi Variable 3.5 mph - N/A   Clear
4:53 AM 70.0 °F 61.0 °F 73% 30.09 in 10.0 mi East 4.6 mph - N/A   Clear
5:53 AM 70.0 °F 61.0 °F 73% 30.10 in 10.0 mi Variable 5.8 mph - N/A   Clear
6:53 AM 70.0 °F 61.0 °F 73% 30.12 in 10.0 mi ENE 6.9 mph - N/A   Clear
7:53 AM 69.1 °F 61.0 °F 75% 30.15 in 8.0 mi Variable 6.9 mph 19.6 mph N/A   Clear
8:53 AM 69.1 °F 61.0 °F 75% 30.18 in 9.0 mi ENE 11.5 mph 20.7 mph N/A   Clear
9:53 AM 70.0 °F 61.0 °F 73% 30.20 in 9.0 mi ENE 11.5 mph 19.6 mph N/A   Mostly Cloudy
10:53 AM 71.1 °F 60.1 °F 68% 30.22 in 9.0 mi East 10.4 mph 21.9 mph N/A   Mostly Cloudy
11:00 AM 69.8 °F 60.8 °F 73% 30.25 in 9.0 mi ENE 9.2 mph 16.1 mph N/A   Overcast
11:53 AM 71.1 °F 60.1 °F 68% 30.22 in 9.0 mi Variable 6.9 mph 17.3 mph N/A   Overcast
12:53 PM 72.0 °F 60.1 °F 66% 30.22 in 9.0 mi SSE 15.0 mph 35.7 mph N/A   Overcast
1:27 PM 75.2 °F 60.8 °F 61% 30.23 in 10.0 mi Variable 5.8 mph - N/A   Mostly Cloudy
1:53 PM 75.9 °F 61.0 °F 60% 30.19 in 9.0 mi East 8.1 mph - N/A   Mostly Cloudy
2:20 PM 75.2 °F 59.0 °F 57% 30.22 in 10.0 mi East 9.2 mph - N/A   Overcast
2:53 PM 75.9 °F 59.0 °F 56% 30.17 in 10.0 mi Variable 5.8 mph - N/A   Mostly Cloudy
3:09 PM 77.0 °F 59.0 °F 54% 30.20 in 10.0 mi ENE 8.1 mph - N/A   Scattered Clouds
3:53 PM 77.0 °F 59.0 °F 54% 30.14 in 10.0 mi Variable 6.9 mph - N/A   Scattered Clouds
4:53 PM 77.0 °F 60.1 °F 56% 30.14 in 10.0 mi Variable 5.8 mph - N/A   Mostly Cloudy
5:53 PM 73.9 °F 59.0 °F 59% 30.14 in 10.0 mi East 6.9 mph - N/A   Overcast
6:53 PM 72.0 °F 59.0 °F 64% 30.15 in 10.0 mi ESE 8.1 mph - N/A   Overcast
7:53 PM 71.1 °F 59.0 °F 66% 30.16 in 10.0 mi East 8.1 mph - N/A   Overcast
8:53 PM 70.0 °F 57.9 °F 65% 30.17 in 10.0 mi Variable 5.8 mph - N/A   Overcast
9:53 PM 70.0 °F 59.0 °F 68% 30.19 in 10.0 mi ENE 6.9 mph - N/A   Overcast
10:53 PM 69.1 °F 59.0 °F 70% 30.20 in 10.0 mi Variable 3.5 mph - N/A   Overcast
11:53 PM 69.1 °F 57.9 °F 68% 30.19 in 10.0 mi Variable 4.6 mph - N/A   Overcast